FENGYUN 1C DEB, 46468

Orbit data source: Space-Track

FENGYUN 1C DEB, 46468 is space debris in SSO originally from a launch on Mon, 10 May 1999 UTC launched from the Taiyaun Space Center, China (TSC). Fengyun 1C debris stems from the Chinese weather satellite Fengyun-1C, which was intentionally destroyed by a Chinese anti-satellite missile in 2007. This event dramatically increased the amount of space debris, with thousands of trackable fragments posing hazards to satellites and human spaceflight. The Fengyun 1C debris cloud has become a focal point in discussions about space sustainability and the need for international regulations to prevent the creation of new debris.

Loading next visibility...
Identifier
46468, 1999-025EZK
Orbit
SSO
Country
Flag of CNCN / PRC
Related business
Manufacturer
Unknown
Mission
Spacecraft
Bus & Motor
Unknown
Mass
Unknown
Launch date (UTC)
1999-05-10 (27 years ago)
Launch vehicle
Unknown
Launch site
Taiyaun Space Center, China (TSC)
Object type
Payload
Rocket body
Debris
Shape & HBR
Unknown shape, 0.1 m
Radar Cross Section
Small (<0.1 m²)

Expand to show TLE details & history
Last TLE update: 3 days ago

TLE from 3 days ago
0 FENGYUN 1C DEB
1 46468U 99025EZK 26206.22161300  .00002913  00000-0  12193-2 0  9997
2 46468  98.8804 301.8674 0039664 300.8725  90.4733 14.26425845770156
Epoch: 2026-07-25T05:19Z
TLE epoch observation values (Epoch: 2026-07-25T05:19:07.363Z)
Latitude
31.43318°
Longitude
-86.30103°
Altitude
808.043 km
Speed
7.452 km/s
True Right ascension
19h 45m 39s
True Declination
31° 16' 53"
Sunlit
Object was in full shadow at epoch
Visualization orbit readout
Latitude
Unknown
Longitude
Unknown
Altitude
Unknown
Speed
Unknown
Apparent Right ascension
Unknown
Apparent Declination
Unknown
Sunlit
N/A
Visualization observer readout
Local Sidereal Time
01:41:40
Azimuth
Unknown
Elevation
Unknown
Doppler factor
Unknown
Orbital elements
Apogee altitude
829.336 km
Perigee altitude
772.386 km
Semi-major axis
7,178.998 km
Eccentricity
0.00397
Inclination
98.8804°
RAAN
301.8674°
Arg. of periapsis
300.8725°
True anomaly
90.92778°
Mean anomaly
90.4733°
Eccentric anomaly
90.70054°
Mean motion
3.56819 °/min
Orbital period
100.89 mins
BSTAR
0.0012193
Loading maneuver chart data...
Computing Atmospheric mass density...
Loading historical data...
Loading historical data...
Loading historical data...
Loading historical data...
Loading historical data...
Loading historical data...
Loading historical data...

Documentation

Showing up to 5 results
|